{"data":{"norad_id":60029,"intl_designator":"2024-111P","name":"STARLINK-32006","alt_names":[],"object_type":"PAYLOAD","status":"ACTIVE","operator":null,"country":"US","launch_date":"2024-06-08","launch_site_code":"AFETR","launch_vehicle":null,"mission":null,"orbit_class":"UNKNOWN","rcs_meters":null,"size_class":null,"mass_kg":null,"dimensions":null,"purposes":["comms"],"wikipedia_slug":null,"has_3d_model":false,"image_url":null,"decayed_at":null,"tle_current":{"epoch":"2026-09-21T15:26:02.220000Z","epoch_age_seconds":79475,"freshness":"FRESH","line1":"1 60029U 24111P   26264.64308125  .00002685  00000+0  90638-4 0  9995","line2":"2 60029  53.1593 244.1109 0001136  94.3946 265.7186 15.34374074129052","mean_motion":15.34374074,"eccentricity":0.0001136,"inclination_deg":53.1593,"raan_deg":244.1109,"arg_perigee_deg":94.3946,"mean_anomaly_deg":265.7186,"bstar":9.0638e-5,"rev_number":12905,"period_min":93.849343807408,"perigee_km":462.00317062263,"apogee_km":463.55742703293,"semimajor_km":6840.9172988278,"source":"CELESTRAK","updated_at":"2026-09-22T09:00:49.139867Z"}}}